Theta_e
333 332 330 326 327 324 318 311 294 298 299 292 291 293 290 299 297 295 294 297 295 300 303 302 302 305 302 300 302 304 304 303 302 292 291 306 310 312 314 316 317 321 324 324 324 324 325 334 334 335 335 336 336 337 337 338 338 339 339 339 340 340 341 341 341 342 342 342 342 342 342 342 342 342 342 342 342 341 341 341 341 342 343 345 346 347 348 348 347 347 347 346 344 343 344 344 345
331 327 325 327 322 320 310 308 296 294 294 290 293 295 292 297 296 293 293 295 298 301 301 300 301 304 304 303 303 305 303 304 306 306 305 310 310 311 312 316 317 318 322 323 324 323 323 327 333 334 334 335 335 336 336 336 337 337 337 337 337 338 338 338 339 339 340 339 340 339 339 339 340 340 340 340 339 339 338 338 338 339 340 342 344 345 345 345 345 345 346 345 341 340 340 341 342
329 322 325 322 319 318 314 305 295 290 290 286 290 291 296 293 294 297 297 300 300 301 299 300 301 302 302 302 300 301 294 307 305 306 305 309 305 306 310 314 317 318 322 321 322 321 322 327 333 333 333 333 334 335 335 335 336 336 335 336 336 336 336 336 336 337 338 337 337 336 336 336 336 337 337 337 336 335 335 335 335 336 337 338 340 342 342 342 342 341 342 341 339 336 336 337 337
327 325 324 319 312 311 302 300 294 292 290 287 288 293 295 293 297 299 301 300 300 300 301 301 299 302 302 299 301 305 303 303 306 305 303 305 304 308 310 313 318 317 321 321 321 320 322 329 332 332 332 332 333 333 334 334 334 334 334 334 334 334 335 335 335 335 335 334 334 333 333 333 333 334 334 334 333 333 332 332 332 332 334 335 337 337 339 338 338 337 338 337 335 332 332 332 332
318 323 325 318 311 306 302 297 296 292 291 290 291 292 295 297 299 299 300 300 299 299 300 301 299 302 304 302 303 299 299 306 305 307 305 307 309 309 310 313 315 316 319 320 320 320 323 331 331 331 332 332 332 332 332 332 332 332 332 332 332 332 332 332 333 333 332 331 331 330 330 330 331 331 331 331 331 330 330 330 330 330 330 331 332 333 333 334 333 332 332 331 330 329 328 328 328
320 318 322 317 309 310 304 297 293 291 297 297 295 293 296 299 300 298 299 299 300 299 301 299 298 300 301 301 305 301 306 301 306 306 305 304 308 310 311 314 313 313 317 318 318 318 320 331 330 331 331 331 331 331 331 331 331 330 330 330 330 330 330 330 330 329 329 329 329 329 329 328 328 328 328 328 328 328 327 327 328 328 327 327 327 329 329 329 329 328 328 327 327 326 325 325 325
317 313 314 309 307 305 296 292 292 293 298 298 295 295 298 299 300 299 298 299 300 300 300 300 301 300 298 301 303 306 308 310 307 306 306 306 308 309 310 309 312 316 316 316 316 317 320 329 329 329 330 330 329 329 329 329 328 328 328 328 328 328 328 328 328 328 328 328 327 327 327 327 326 326 326 325 325 325 325 325 325 325 325 325 325 326 327 327 327 327 327 326 326 326 326 325 324
319 311 308 299 298 296 292 290 292 292 292 297 297 298 299 301 299 298 298 296 297 296 299 301 300 298 297 303 298 305 308 307 309 307 306 307 308 308 308 308 312 314 315 315 314 316 326 328 328 328 328 328 327 327 327 327 327 327 327 327 326 326 326 326 326 326 326 326 326 325 325 325 325 325 325 325 324 324 324 324 324 325 324 324 324 324 325 326 326 325 325 325 324 323 324 324 324
313 312 308 299 294 296 292 292 292 294 294 297 298 302 306 302 300 299 297 298 298 298 298 300 298 296 294 300 299 304 305 307 306 308 306 306 306 306 306 309 311 311 313 313 313 312 317 327 327 327 327 327 327 326 326 326 327 326 326 325 325 325 325 325 325 324 325 325 324 323 322 323 323 323 323 324 324 323 323 324 324 324 324 324 323 323 324 324 324 324 324 324 323 323 323 323 323
308 307 299 296 295 292 290 292 294 296 297 297 297 299 301 300 299 300 298 298 298 297 299 300 298 296 298 298 298 302 303 305 304 303 303 304 304 304 306 307 310 311 311 311 311 312 314 324 326 326 326 326 326 326 325 325 325 325 324 324 323 323 322 322 322 323 323 322 322 321 321 321 320 321 321 322 323 323 322 321 321 322 322 322 322 322 323 323 323 323 323 322 322 322 321 322 321
301 306 304 296 293 290 291 290 291 294 296 298 297 299 300 299 300 297 298 297 299 298 299 300 300 297 298 298 298 304 307 304 301 300 302 303 302 302 304 307 310 311 310 309 310 310 311 314 323 324 324 324 325 324 324 323 324 323 323 322 322 321 321 321 321 321 321 321 320 320 320 319 318 319 319 320 321 321 321 321 321 321 321 321 321 321 321 321 321 322 321 321 321 320 320 320 320
300 300 300 292 290 289 289 290 293 295 296 297 298 300 298 300 299 298 298 297 297 298 299 300 298 299 297 298 299 302 303 302 301 302 302 301 300 302 304 305 307 309 309 309 309 308 309 310 313 320 322 322 322 322 322 322 321 322 322 321 321 320 320 320 319 318 318 318 318 318 318 318 316 316 316 317 317 318 319 319 319 319 320 320 320 320 320 320 320 320 320 319 319 319 318 319 318
301 301 296 293 288 290 291 292 293 295 293 294 296 300 299 300 299 297 297 297 297 298 299 301 301 301 297 297 299 302 301 302 302 302 301 299 300 301 302 303 305 307 308 308 307 306 306 307 310 312 316 319 319 320 320 320 320 320 320 320 319 319 318 318 317 316 316 315 315 314 315 315 315 314 313 313 313 314 316 317 316 317 317 318 318 318 318 318 318 318 317 317 317 317 317 317 317
303 301 298 293 292 293 292 291 292 292 289 296 297 301 302 300 299 297 297 297 297 298 300 303 301 300 298 296 297 299 300 302 302 301 299 299 300 300 301 302 303 304 305 305 305 305 305 306 306 309 310 309 310 315 317 318 318 318 318 318 317 317 316 316 315 315 314 313 312 311 311 312 312 312 312 311 310 310 312 314 314 315 315 316 316 315 315 316 316 315 315 315 315 314 314 315 314
304 303 297 294 290 290 290 292 292 292 290 295 299 299 301 302 301 300 299 297 297 301 302 304 302 299 293 298 294 300 302 302 301 299 299 299 299 299 300 301 301 301 301 303 303 304 303 303 304 304 304 304 304 304 306 312 315 315 315 315 314 314 314 313 313 312 311 311 311 310 309 308 308 308 308 308 308 307 307 309 311 312 312 313 314 313 313 314 313 313 313 313 312 312 311 312 312
305 302 296 293 288 290 291 293 293 293 291 295 299 298 299 300 301 301 300 301 301 303 302 299 303 299 298 298 298 302 303 300 300 299 298 297 298 299 299 299 298 298 298 300 301 301 301 301 301 301 301 301 301 302 303 305 312 313 313 313 312 312 311 310 309 309 308 309 309 309 308 305 305 304 306 304 306 305 306 306 309 310 309 311 311 311 311 312 311 311 311 311 310 309 309 308 308
305 300 294 291 290 291 290 294 294 291 294 297 298 298 297 297 299 300 299 300 299 300 301 301 301 303 301 300 303 303 301 301 301 297 297 296 297 296 296 295 296 296 299 298 298 299 299 299 300 300 301 301 300 300 301 302 307 311 311 311 310 310 310 308 307 306 307 306 306 307 307 299 297 297 297 299 307 302 305 306 307 308 307 308 308 308 309 309 309 310 309 308 308 307 306 306 306
303 295 291 288 292 293 293 296 296 297 296 296 297 296 296 296 298 300 300 300 298 299 299 300 302 299 301 303 302 301 300 299 297 296 295 294 295 294 294 294 295 295 297 296 297 298 298 299 300 300 300 299 299 300 300 301 304 305 300 302 302 306 308 309 304 301 308 299 307 303 299 299 296 296 298 304 301 304 303 306 306 306 305 306 306 305 307 307 307 307 307 306 305 304 304 296 298
299 295 291 289 290 294 297 298 297 297 295 296 295 295 297 296 297 298 298 294 296 296 296 299 299 298 300 300 299 299 299 297 296 295 294 294 294 294 294 294 294 294 295 296 296 298 298 299 299 299 300 299 299 298 299 300 300 298 299 299 302 306 304 301 300 301 297 298 297 297 299 298 295 297 298 300 301 307 302 307 303 304 303 303 303 303 303 305 304 304 305 304 303 302 295 293 294
300 297 291 292 295 297 299 298 298 299 298 298 297 297 296 297 297 299 297 294 295 295 295 295 297 297 297 298 298 298 298 296 296 295 294 294 294 295 294 294 294 294 295 296 296 298 298 298 298 299 300 300 299 298 299 298 298 298 298 298 299 298 299 299 297 297 297 297 296 296 296 297 296 296 306 306 303 295 297 303 303 302 303 302 302 299 301 302 302 302 302 302 299 295 293 292 293
298 297 292 294 296 297 296 298 298 298 299 298 298 296 296 296 297 297 294 294 294 296 298 299 297 299 297 297 297 297 296 295 295 295 294 294 295 295 295 295 294 295 296 296 297 297 297 298 298 299 299 299 299 299 298 297 298 297 296 297 297 297 297 297 297 297 297 296 296 297 296 296 296 295 294 294 293 293 292 293 293 293 293 293 299 292 292 293 293 292 292 294 291 292 292 291 292
300 296 297 297 297 297 299 297 298 298 296 297 295 295 295 298 297 296 295 295 295 296 299 299 300 301 299 297 297 297 296 295 295 295 294 295 295 295 295 295 295 293 296 295 296 297 297 298 297 298 299 299 299 299 298 298 298 296 296 297 297 297 297 296 296 296 296 295 294 296 297 294 295 294 293 293 293 293 292 292 292 291 291 291 294 291 291 291 291 290 291 291 291 291 291 291 291
296 297 297 298 299 298 300 298 297 297 297 296 295 296 297 297 296 295 296 297 300 299 298 300 301 301 301 300 298 296 296 295 295 295 295 295 295 295 296 296 295 293 295 295 296 297 297 298 297 298 298 298 298 298 298 298 297 297 296 297 296 296 296 296 295 294 295 294 294 296 294 292 292 292 292 292 292 292 292 291 291 291 291 290 292 291 290 290 290 290 290 291 290 291 291 291 291
301 298 295 297 297 296 297 299 296 295 296 295 295 296 296 295 294 295 296 300 302 300 299 299 299 300 300 299 297 297 297 296 296 297 297 297 297 296 297 296 296 295 295 295 295 296 297 297 297 298 298 298 297 298 297 297 296 296 296 299 296 297 296 294 294 294 295 293 294 295 294 292 291 290 291 291 291 291 291 291 291 290 290 289 291 291 290 289 289 289 290 289 290 290 290 290 290
297 297 296 298 298 298 297 295 293 294 295 294 296 295 296 295 295 295 297 301 299 300 300 301 300 298 300 300 298 298 297 297 297 297 298 298 298 298 298 296 295 295 294 295 295 295 296 297 297 297 297 297 297 297 296 296 296 296 296 295 294 300 294 294 294 294 293 293 293 293 294 291 291 291 290 291 290 291 290 291 290 289 290 289 290 289 290 289 289 289 289 289 289 290 289 289 290
296 298 297 295 296 296 296 297 295 295 296 295 296 295 295 295 296 295 299 301 300 298 298 300 300 298 297 299 299 298 297 297 298 297 298 298 298 298 297 296 295 294 295 295 295 295 296 297 297 297 297 297 297 296 295 295 295 295 295 294 294 297 293 293 294 293 292 292 291 292 293 291 290 290 290 289 289 290 289 289 290 289 289 288 288 288 289 289 288 288 289 289 289 289 289 289 289
297 296 295 295 296 296 297 296 297 295 295 294 295 295 295 295 296 293 300 299 298 299 299 298 298 298 298 298 299 299 298 298 298 299 298 297 297 298 298 297 295 295 296 295 295 295 297 297 297 297 297 298 297 296 295 295 295 294 295 293 294 294 293 294 293 292 291 292 292 292 292 293 291 290 290 289 289 289 289 289 289 289 288 288 288 288 288 289 289 288 288 288 288 288 288 288 288
297 295 296 297 296 296 296 297 297 296 296 295 295 295 293 293 294 295 300 296 297 297 297 298 297 297 298 298 298 299 299 299 299 298 297 297 297 298 298 298 296 295 295 295 296 295 296 296 296 296 297 298 297 295 296 295 294 294 294 292 293 293 294 293 292 291 292 292 292 291 291 291 292 290 290 289 289 288 288 288 288 288 287 287 288 287 288 288 288 288 288 289 288 288 287 287 288
296 296 293 295 295 295 298 297 298 295 296 294 295 293 293 292 292 298 300 300 297 296 295 296 297 298 298 297 298 298 299 299 299 298 299 299 299 299 298 299 298 296 296 296 296 295 295 296 296 296 297 297 296 295 295 295 294 294 293 292 293 294 293 292 291 291 291 292 291 290 290 291 292 290 289 290 291 288 288 288 288 289 287 288 288 288 288 287 287 287 287 288 287 288 287 287 288
297 295 292 294 292 291 298 297 298 295 295 295 296 287 290 294 296 299 300 299 297 296 297 296 296 297 298 298 297 298 299 298 298 299 300 300 299 299 299 299 299 297 295 296 295 295 296 297 297 296 296 296 296 295 295 295 294 294 293 292 294 293 292 291 291 291 291 291 291 290 290 291 290 289 289 288 288 287 288 288 287 287 287 287 287 288 286 287 286 286 287 286 289 287 286 286 286
291 292 293 288 287 287 295 295 294 293 294 295 296 288 292 295 297 297 298 299 296 296 296 296 296 296 297 297 297 298 298 299 300 301 301 301 300 299 299 299 299 297 295 295 295 295 296 296 297 296 296 295 296 295 295 294 295 294 293 292 293 292 291 291 291 291 291 291 291 290 289 290 289 289 289 288 287 287 287 286 287 286 287 287 286 286 286 286 286 286 287 286 285 285 285 286 286
291 289 285 286 287 288 295 294 293 293 294 294 295 288 291 295 297 296 297 296 295 295 296 295 296 296 296 297 297 298 299 299 299 301 301 301 300 299 299 298 299 298 296 296 295 295 295 295 296 295 295 294 294 295 294 294 294 294 293 294 292 292 291 291 290 291 290 290 290 289 289 290 289 289 288 288 287 286 286 286 286 287 286 286 286 286 286 285 285 286 286 286 284 284 285 284 285
289 290 286 287 285 288 291 293 294 297 292 293 295 289 291 292 295 296 295 296 294 295 295 295 295 296 297 297 297 297 298 297 298 299 300 301 301 300 299 299 298 298 296 295 295 294 294 294 295 294 294 294 294 294 293 293 293 292 292 292 292 291 290 290 290 290 290 290 289 289 289 290 288 288 288 287 287 287 285 286 286 287 287 285 285 284 284 287 284 287 285 287 284 283 283 283 284
286 287 286 287 287 288 287 291 292 292 294 290 292 290 293 296 293 292 293 295 294 294 295 296 295 295 296 297 297 297 298 298 298 299 299 300 301 301 300 300 299 298 297 296 295 294 294 294 294 294 294 294 294 294 293 293 293 292 292 291 292 290 290 290 289 289 289 289 289 289 289 289 288 288 287 287 286 286 286 285 285 286 286 285 284 284 284 284 284 285 283 284 285 283 282 282 283
284 285 285 287 289 290 290 289 292 292 291 291 290 289 291 294 295 295 297 294 293 294 295 296 296 296 296 296 297 297 297 297 299 300 299 300 300 301 300 299 298 298 297 296 295 294 294 293 293 294 293 293 293 293 292 292 292 291 290 290 290 289 289 289 289 289 289 289 289 289 288 288 288 287 287 287 286 286 285 285 285 286 285 284 284 283 283 285 285 283 283 283 284 284 283 283 283
288 288 288 286 286 287 289 292 292 293 289 289 289 289 291 292 294 295 296 297 295 294 293 294 295 296 296 296 296 297 297 298 300 300 299 300 301 301 300 299 298 298 297 295 295 294 293 293 292 293 293 293 293 293 292 291 290 290 289 289 288 289 288 289 288 289 288 288 289 289 288 288 288 287 287 286 286 286 284 284 285 285 284 284 283 283 282 282 283 283 282 283 282 283 285 284 283
291 289 288 288 288 289 292 293 292 292 290 289 291 291 291 293 294 296 296 296 294 294 294 295 296 297 298 298 298 298 298 299 301 299 299 299 300 300 300 298 297 297 296 295 294 293 293 293 292 292 292 292 293 292 291 291 289 288 288 289 289 289 289 288 288 288 288 287 289 289 288 287 287 287 287 286 285 287 285 284 284 284 284 284 284 283 283 283 283 283 284 284 284 282 281 282 282
291 290 288 289 288 288 293 294 292 290 291 287 290 291 291 292 295 296 296 293 294 295 295 294 295 296 298 298 298 298 299 300 298 296 297 298 298 299 297 297 296 295 294 294 294 293 293 292 292 292 292 292 293 292 292 291 291 290 290 289 289 289 288 288 287 287 288 288 289 288 287 287 287 287 287 286 285 285 284 283 284 283 284 284 284 284 282 286 285 283 283 281 282 282 280 282 283
290 289 288 286 288 291 293 293 293 290 289 289 288 288 290 292 294 296 295 295 296 297 297 298 298 297 298 298 298 298 298 298 295 297 296 297 298 298 297 296 296 297 295 294 294 293 292 292 292 292 292 292 292 292 292 291 291 290 290 289 289 288 288 288 287 288 288 288 288 288 287 287 286 286 286 286 285 285 284 283 283 283 283 285 283 282 282 282 282 282 282 281 280 280 282 283 282
289 289 286 286 290 287 287 290 289 290 290 284 285 287 289 291 293 294 296 296 297 298 299 299 299 298 298 299 300 300 298 296 296 297 296 296 296 297 296 295 296 296 295 294 293 293 293 293 292 292 292 292 292 292 292 291 291 289 288 288 288 288 287 288 287 287 287 287 287 287 287 287 286 286 286 285 285 284 284 283 283 283 283 283 282 281 281 281 281 281 281 282 281 278 278 278 283
290 290 289 289 289 290 289 289 288 288 290 290 288 287 288 290 291 293 296 298 297 298 298 298 299 299 300 300 300 300 299 298 297 295 294 294 294 295 296 296 295 295 294 294 293 293 293 293 293 292 292 292 292 292 292 290 290 288 288 288 287 287 287 286 285 284 286 287 286 286 287 287 286 286 285 285 285 284 284 283 283 283 282 282 282 281 281 281 281 281 281 281 280 279 278 278 279
289 289 290 291 291 290 290 290 288 286 284 288 288 284 285 289 291 293 295 291 292 295 295 296 297 298 299 298 299 300 299 299 298 297 296 295 296 295 294 294 294 295 294 294 294 294 294 293 293 292 292 292 291 291 291 290 290 288 287 286 285 285 285 285 285 285 285 286 286 287 286 286 286 285 285 285 285 284 284 283 283 282 282 282 282 281 281 280 280 280 280 280 280 280 279 278 277
288 286 291 292 291 290 287 287 287 281 281 287 289 283 283 284 287 290 290 290 292 292 292 295 296 297 297 297 298 298 297 297 296 296 295 294 295 294 294 294 294 294 294 294 294 294 294 293 293 292 292 292 292 291 291 291 289 289 288 288 287 286 286 286 287 287 287 287 286 286 286 286 286 285 285 284 284 284 283 283 283 282 282 282 283 281 280 280 280 280 281 280 280 283 279 278 277
287 287 289 289 289 288 288 288 288 286 284 287 287 283 281 285 288 289 291 291 291 292 293 294 295 296 297 298 298 296 296 296 298 297 295 295 295 295 294 294 294 295 294 293 293 293 293 293 292 292 292 292 291 291 291 291 289 289 288 287 288 287 287 286 287 287 287 286 285 285 285 285 285 285 284 284 284 284 283 283 282 282 282 281 282 281 280 280 281 281 281 280 280 280 279 278 277
286 289 290 290 291 289 288 287 284 283 282 283 284 287 284 283 286 293 292 289 290 291 293 294 295 296 297 298 298 296 296 296 298 297 295 295 295 295 295 294 294 293 293 293 293 293 293 292 292 292 292 291 291 291 291 290 290 289 289 288 287 288 287 286 286 287 286 286 285 285 285 285 284 284 284 284 283 283 284 282 282 281 281 281 283 281 280 280 280 279 279 279 279 279 279 279 278
290 290 289 288 287 287 288 285 285 280 278 281 281 286 281 283 288 285 286 289 289 291 293 294 295 296 297 298 298 297 296 295 297 298 297 296 296 295 295 294 293 293 294 294 293 293 292 292 292 291 291 291 291 290 291 290 290 290 288 288 287 287 286 285 285 285 285 285 285 284 284 284 284 283 283 283 283 283 283 282 282 281 281 281 282 280 280 279 279 279 279 279 278 278 278 279 278
290 289 287 284 282 282 280 280 279 280 277 281 283 285 285 280 284 286 286 286 290 292 292 294 294 295 296 297 296 297 296 296 297 296 296 296 295 294 293 293 293 292 292 292 292 292 292 291 291 291 291 291 290 290 290 290 289 289 288 288 287 286 285 285 284 284 284 284 284 284 284 284 283 283 283 282 282 282 282 282 281 281 280 282 281 280 279 279 279 279 279 279 279 278 278 278 279
288 285 283 284 283 279 279 277 279 276 278 280 285 284 286 279 280 284 290 290 293 293 291 293 293 294 296 296 296 296 296 296 296 295 294 294 293 292 292 292 292 292 292 292 292 291 291 291 291 291 291 290 290 290 290 290 289 289 289 288 287 287 286 285 285 284 284 284 284 283 283 283 282 282 282 282 281 282 281 281 281 280 280 280 280 280 279 279 279 279 278 278 278 278 278 279 277
288 284 284 280 275 276 273 273 273 272 279 279 283 285 280 282 287 286 287 289 290 291 294 294 294 295 295 295 296 297 296 296 296 295 295 294 294 293 292 292 291 291 292 292 292 291 291 291 291 290 290 290 290 290 289 289 289 289 289 288 288 287 286 286 285 285 285 284 284 283 282 282 282 281 281 281 281 281 281 280 280 280 279 279 279 279 279 279 279 278 278 278 277 277 277 277 276
285 285 281 278 273 272 270 271 271 273 279 279 281 283 283 286 286 292 293 294 292 292 294 294 295 295 295 295 296 296 296 297 297 297 296 295 294 293 293 293 292 292 292 292 292 291 291 291 290 290 290 290 290 289 289 289 289 289 289 288 288 287 286 286 286 285 285 285 284 283 283 282 282 282 281 281 282 281 281 281 280 279 279 279 279 278 278 278 278 278 278 277 277 277 276 276 276
288 285 287 284 280 271 269 272 275 277 280 276 281 279 276 275 282 288 294 296 297 294 294 295 294 294 294 293 293 292 294 294 296 296 296 296 295 294 293 293 293 292 292 292 292 292 291 291 290 290 290 290 290 289 289 289 289 289 289 289 288 287 287 287 286 286 285 284 284 283 283 283 282 282 282 281 281 281 280 280 280 279 279 279 279 278 279 278 278 278 278 277 277 276 276 277 276
284 284 287 281 282 281 282 283 276 274 276 278 275 280 278 284 287 288 291 292 292 293 294 293 293 293 291 291 293 295 294 295 295 296 295 295 294 293 293 293 293 292 292 292 292 292 291 291 291 290 290 290 290 289 289 289 289 289 288 288 287 287 287 287 286 285 285 285 284 284 283 282 282 282 281 280 280 281 280 279 279 279 278 278 278 278 278 278 277 277 277 277 276 278 276 276 276
282 286 282 286 286 287 283 283 281 277 275 279 277 280 284 286 291 292 293 292 292 292 292 292 293 294 293 293 293 293 294 295 295 295 295 295 293 292 293 293 292 292 291 292 292 292 292 291 291 290 290 290 289 289 289 289 289 288 288 288 287 287 286 286 286 285 284 284 284 283 283 282 281 281 280 280 280 280 279 279 279 278 278 278 278 278 277 277 277 277 276 275 275 275 276 275 275
284 279 284 287 287 285 283 276 276 274 272 279 277 279 282 280 281 285 287 288 289 289 291 292 293 294 293 293 292 294 295 295 296 296 295 295 294 294 293 293 293 293 292 292 292 292 292 292 291 290 290 289 289 289 289 289 288 288 288 287 287 287 287 286 286 284 284 283 283 282 281 280 280 280 281 280 280 279 279 279 278 277 277 277 277 277 277 276 276 276 276 275 275 275 275 275 275
284 283 286 287 279 278 281 277 276 276 275 277 282 282 282 284 284 286 285 285 287 290 292 292 292 293 292 292 291 292 293 293 293 294 294 294 294 294 293 293 293 293 292 292 292 292 291 291 291 291 290 290 290 290 289 289 288 288 288 287 287 286 286 286 285 284 283 283 282 281 281 280 279 279 280 279 278 278 278 278 277 277 277 277 276 276 276 276 276 275 275 275 275 275 274 274 274
286 286 284 283 281 277 279 284 280 280 279 279 280 282 280 286 283 285 287 289 290 290 291 291 293 293 294 293 293 293 293 294 294 295 295 295 295 294 293 293 292 293 292 292 291 291 290 291 290 290 290 289 289 288 288 288 288 288 288 287 286 286 286 285 284 283 282 282 282 281 280 279 279 279 279 279 278 278 278 277 277 277 276 276 276 276 276 275 275 275 275 275 274 274 274 274 273
283 284 280 282 281 283 283 282 280 280 276 276 275 276 283 285 287 287 287 288 289 290 290 291 292 293 293 294 295 293 293 294 295 295 295 295 295 293 292 292 292 289 290 289 289 290 291 290 290 290 289 289 289 289 288 288 288 287 287 286 285 285 284 284 283 283 282 282 281 281 280 279 279 278 278 278 277 277 277 277 276 276 276 276 275 275 275 275 274 274 274 274 273 273 273 273 273
287 287 285 287 283 281 279 279 285 279 281 278 276 277 284 289 289 289 287 287 288 289 291 291 291 292 293 294 293 292 292 294 296 296 295 295 294 294 293 289 288 288 289 289 290 290 288 289 290 289 289 288 288 288 288 288 287 287 286 286 285 284 284 283 282 282 282 281 280 280 279 278 278 278 278 277 277 277 277 276 276 276 275 275 275 275 274 274 274 273 273 273 273 273 272 272 272
Wind_Speed
5 5 5 5 1 1 2 2 1 2 1 4 3 1 3 0 1 2 1 0 1 1 1 3 4 4 1 2 8 5 0 2 2 5 4 1 3 4 4 4 3 7 7 4 3 3 2 6 10 10 10 10 10 9 10 10 10 12 12 11 11 11 11 10 10 10 11 11 13 14 14 13 13 13 13 14 14 14 13 13 13 13 13 14 14 14 17 16 15 17 17 17 16 15 15 15 16
4 3 4 3 3 3 1 1 1 2 2 3 8 2 3 1 2 3 4 2 1 2 1 4 4 6 7 7 7 5 3 2 1 2 1 1 3 3 4 4 4 8 6 4 4 3 2 3 9 11 11 10 10 9 10 10 10 12 12 11 10 10 10 10 10 10 11 11 13 13 14 13 14 14 14 14 14 14 13 13 13 13 14 14 14 14 15 17 16 16 17 16 15 15 15 14 15
3 5 5 4 1 1 1 2 0 0 1 3 7 2 1 2 1 2 0 2 4 4 3 3 3 3 2 4 3 1 3 2 5 3 3 4 9 6 5 4 4 5 8 4 4 3 1 3 8 11 11 10 10 10 10 10 11 12 12 11 11 11 11 10 10 12 12 13 13 13 13 13 13 13 13 13 13 13 13 13 13 13 13 14 15 15 15 16 16 15 15 16 15 15 14 15 14
3 1 0 1 1 2 1 1 2 2 2 6 5 3 1 5 3 4 0 1 3 1 1 1 2 1 1 1 1 5 3 2 3 7 5 8 6 8 7 5 6 6 6 5 4 3 2 5 10 11 11 11 11 11 11 11 11 12 12 12 12 12 12 12 12 12 12 12 12 13 13 13 13 13 13 13 13 13 13 13 13 14 14 14 14 14 14 14 14 14 14 13 13 12 12 13 13
2 4 1 1 3 1 1 2 2 2 4 4 1 5 2 4 6 4 2 1 1 2 1 2 3 2 0 2 1 1 4 2 3 4 3 3 4 8 7 5 5 7 6 5 5 3 3 7 10 11 12 11 11 11 11 11 12 12 12 12 12 12 12 12 12 12 12 12 13 13 13 13 13 13 13 13 13 13 13 13 13 13 14 14 14 13 13 13 13 13 13 12 12 12 12 11 11
3 3 2 1 0 2 2 2 4 4 9 2 3 3 4 7 8 4 3 3 0 2 1 3 3 2 1 1 1 4 5 3 5 3 6 6 11 10 8 6 5 6 5 5 4 3 4 8 10 11 12 12 12 11 12 12 12 12 12 12 12 12 12 12 12 12 12 12 13 13 13 13 13 13 13 13 13 13 13 13 13 13 13 13 13 13 13 13 13 13 13 13 13 13 12 12 12
2 4 1 3 1 2 3 1 6 6 10 5 4 2 7 4 6 8 3 2 2 2 1 2 3 3 2 0 2 1 2 1 6 4 5 10 10 10 9 7 7 8 6 5 4 3 4 10 11 11 11 11 11 11 11 12 11 11 12 12 12 12 12 12 12 12 12 13 13 13 13 13 13 13 13 13 13 13 13 12 12 13 13 13 13 13 13 13 13 13 13 13 13 13 12 12 12
0 2 0 2 0 1 1 3 6 3 7 5 2 3 5 7 7 5 6 3 2 3 1 1 3 3 2 4 2 0 5 3 1 7 8 11 10 9 8 7 10 8 7 5 4 2 7 10 11 11 12 12 11 11 11 11 11 12 12 12 12 12 12 12 12 12 12 13 13 13 13 13 13 13 13 13 13 13 13 13 13 13 13 13 13 13 13 13 13 13 13 13 13 13 13 13 13
2 0 1 5 1 0 2 5 6 3 7 6 3 4 8 11 8 7 5 2 2 0 3 2 4 4 2 2 1 1 1 1 5 10 11 10 11 9 7 9 10 8 8 6 4 3 4 9 11 12 12 12 12 11 11 12 12 12 12 12 12 12 12 12 12 12 13 13 13 13 13 13 13 13 13 13 12 12 13 13 13 13 13 13 13 14 13 13 13 14 14 14 13 13 13 13 13
1 2 0 1 2 2 3 7 0 7 5 7 6 4 7 5 4 6 6 2 4 4 4 4 4 2 1 3 0 1 2 4 8 8 7 10 9 7 8 9 10 11 8 7 4 4 4 8 11 12 12 12 12 12 12 12 12 12 12 12 12 12 12 12 12 12 13 13 13 13 13 13 13 13 13 13 13 13 13 13 13 13 13 13 13 13 13 13 13 13 14 14 14 14 14 13 13
1 1 1 1 0 3 4 7 3 8 3 0 2 4 8 5 7 3 6 3 3 5 1 6 1 3 1 1 2 2 5 8 11 13 10 10 7 8 9 9 10 11 10 9 6 5 4 4 11 12 13 13 13 13 13 13 13 13 12 12 12 12 12 12 13 13 13 13 13 13 13 13 13 13 13 13 13 13 13 13 14 14 14 14 14 15 15 14 14 14 14 14 14 13 13 13 13
1 0 1 2 3 4 5 3 5 7 7 2 1 1 3 5 4 3 3 4 2 4 7 8 3 6 1 1 1 0 9 7 7 9 9 7 6 7 9 8 9 10 11 10 8 6 5 4 4 10 13 14 14 14 13 13 13 13 13 13 13 13 13 13 13 12 13 12 12 12 13 13 13 14 14 13 13 13 13 14 14 15 15 15 16 16 17 17 17 17 17 16 16 15 15 14 13
1 0 1 1 3 2 4 3 7 5 3 2 3 1 1 5 4 6 5 5 5 6 2 9 4 5 2 3 1 2 7 9 6 7 7 6 6 7 6 7 9 10 10 9 9 7 6 5 5 5 8 14 12 13 13 13 13 13 14 14 14 14 14 13 13 12 12 12 13 13 12 13 13 14 14 15 14 14 14 15 15 16 16 16 16 17 17 17 17 18 18 18 18 18 17 16 15
1 1 1 3 0 2 2 5 4 4 5 1 1 0 0 2 3 5 3 4 6 7 4 11 3 4 2 3 1 5 8 7 8 7 5 5 5 6 6 6 7 9 8 9 9 8 7 6 5 5 6 5 5 8 11 12 12 13 14 14 14 13 13 13 13 12 12 12 12 13 12 12 13 13 14 15 16 15 14 15 15 16 16 15 15 16 16 16 16 17 17 17 17 18 18 18 18
1 1 0 0 3 1 3 1 5 3 4 1 2 2 0 2 0 1 3 4 5 1 2 2 4 5 6 8 5 9 11 11 11 8 7 6 5 5 5 5 6 6 7 9 9 9 8 7 7 6 6 5 6 5 4 7 12 12 13 13 13 13 13 12 12 12 12 11 12 12 13 12 11 12 12 13 14 14 13 11 13 14 14 13 13 13 14 13 13 14 15 14 15 17 17 17 18
2 1 1 0 3 0 6 2 2 3 4 3 3 3 1 2 1 1 1 1 1 2 2 5 2 3 2 8 4 8 13 14 12 9 9 8 6 5 5 5 5 5 5 7 8 8 8 8 7 6 7 6 5 5 5 5 9 12 13 13 13 12 12 12 11 10 9 8 8 10 11 8 7 5 8 5 8 8 8 6 9 11 12 12 11 12 14 13 13 14 15 14 15 16 16 17 17
2 3 1 1 7 2 5 1 0 3 2 2 1 1 3 1 2 0 0 0 3 2 2 2 5 1 2 2 2 11 13 14 12 10 10 8 8 6 5 5 6 5 4 6 8 8 8 8 8 7 6 7 7 6 5 4 5 10 9 11 12 12 11 10 10 8 6 5 5 7 7 5 4 4 3 3 4 2 3 3 7 10 12 12 13 14 14 14 14 14 15 16 16 16 16 14 14
3 1 2 3 5 1 4 3 2 1 1 2 1 4 3 2 1 1 1 1 0 0 4 2 2 4 1 2 7 13 15 16 13 15 11 9 7 7 7 7 7 10 8 7 7 8 9 8 9 8 7 8 7 6 4 4 4 6 5 5 5 6 8 7 5 3 3 1 3 4 5 4 4 3 3 4 2 1 1 1 6 11 12 12 13 14 14 14 14 14 14 15 16 15 14 7 7
3 1 2 7 3 7 3 2 4 0 2 3 4 4 5 6 5 1 1 3 2 4 4 2 4 1 5 7 10 14 15 14 14 14 15 15 12 14 11 8 8 6 8 8 8 10 9 9 8 9 9 10 9 7 5 5 5 4 4 4 4 6 5 5 4 4 3 3 5 4 5 4 4 3 3 3 3 4 2 7 10 11 12 12 11 13 14 14 14 14 14 14 14 12 6 6 6
4 2 4 7 7 4 5 4 2 1 2 1 0 2 4 2 4 1 3 5 1 8 7 3 7 7 6 6 9 12 13 14 13 14 16 15 14 14 12 11 11 11 12 11 10 7 9 9 10 9 10 11 10 8 7 6 5 5 5 5 5 5 5 5 4 4 3 4 5 5 5 5 4 3 4 7 6 4 4 6 8 8 9 10 10 6 10 12 13 11 12 11 7 5 5 6 6
2 3 5 6 4 1 5 3 1 0 1 1 0 1 1 3 4 4 3 2 8 10 10 11 13 13 11 10 10 11 12 13 12 12 14 13 12 10 13 15 16 15 11 8 6 9 10 10 9 9 9 10 10 9 8 8 7 6 6 6 6 5 6 5 5 4 4 4 5 5 5 4 4 4 4 4 4 3 3 4 4 4 4 4 6 5 6 5 6 6 5 5 5 5 5 5 5
2 8 7 6 6 6 8 3 1 1 2 0 1 2 5 1 2 5 5 9 13 9 8 9 11 10 13 13 13 11 13 14 15 14 15 16 17 15 11 8 5 4 6 9 12 10 11 11 10 9 10 9 10 10 9 9 9 8 8 7 7 6 6 6 6 5 4 4 4 4 6 6 5 4 4 4 3 3 4 4 4 4 4 4 4 6 6 6 6 6 6 6 5 5 5 5 5
6 5 5 7 7 5 4 3 2 0 0 1 1 3 1 2 4 4 8 15 14 4 4 9 11 10 15 17 15 12 14 15 16 18 17 16 14 14 14 12 12 11 11 12 11 10 10 10 10 10 10 10 10 9 8 8 8 8 7 8 8 7 7 7 6 6 5 4 4 4 7 6 5 5 4 4 3 3 3 4 4 4 5 6 5 6 6 6 6 5 6 5 5 5 6 5 5
8 11 1 6 4 7 7 9 5 3 5 5 3 1 2 2 7 2 8 17 16 6 5 5 4 5 9 11 15 19 19 19 20 21 21 22 21 21 18 16 14 9 8 10 11 10 11 13 11 12 11 11 9 9 9 8 8 8 8 8 7 8 8 7 6 6 5 5 4 4 6 6 6 6 4 4 3 3 3 3 4 5 6 6 5 5 5 5 5 3 3 4 4 4 5 6 5
6 8 4 6 5 6 5 3 3 4 6 4 2 4 8 6 6 5 15 18 7 9 6 9 6 4 9 14 16 15 15 15 16 15 10 11 10 11 8 8 8 10 12 12 11 11 12 12 12 13 11 12 10 10 9 8 8 7 7 8 8 8 7 7 7 6 6 5 4 4 5 6 6 6 5 4 3 4 4 4 4 5 5 5 5 5 5 4 4 4 4 5 4 5 5 5 5
5 9 2 4 5 5 6 8 6 7 4 3 2 10 9 6 6 11 24 23 8 6 6 10 8 6 9 13 16 15 15 17 16 13 18 13 9 11 12 12 11 14 16 13 12 12 12 12 14 15 14 13 11 10 9 9 8 9 8 8 8 7 7 8 7 7 6 6 5 4 5 6 6 6 5 4 5 4 4 3 4 4 5 4 5 5 4 4 5 5 5 4 5 6 6 6 5
1 2 3 5 7 6 6 6 7 4 4 4 6 10 7 2 4 12 15 10 5 9 12 8 7 11 11 10 12 14 16 18 19 17 8 8 10 13 14 13 13 15 12 13 13 12 12 13 13 14 13 11 9 11 9 9 8 9 8 8 7 8 8 8 7 7 6 6 6 5 5 6 6 6 6 5 5 5 4 3 4 4 5 5 5 5 3 4 4 4 3 4 5 5 6 6 6
2 2 7 10 6 6 9 9 14 4 7 8 8 9 4 3 3 16 25 4 3 7 8 9 8 10 10 10 12 12 14 16 14 10 16 14 14 15 15 15 16 12 14 15 13 11 12 15 14 13 13 12 11 10 10 10 10 9 8 8 8 8 8 7 7 7 7 6 5 5 6 6 6 6 5 5 5 5 4 4 3 5 4 4 4 4 4 3 3 3 3 3 4 4 5 5 5
2 2 6 12 5 9 13 10 11 4 9 6 5 3 11 5 10 24 21 11 5 4 6 7 10 11 10 9 10 9 14 13 10 12 17 18 16 14 17 17 16 15 12 14 13 13 16 15 14 14 13 12 12 12 11 10 9 8 9 8 7 8 8 7 8 7 7 6 6 6 6 6 6 6 6 5 4 5 4 4 4 4 4 4 3 3 3 3 3 3 3 3 4 4 4 5 5
1 1 3 12 6 7 19 4 12 6 4 11 7 6 10 13 19 21 16 11 7 6 11 9 8 10 10 9 10 11 10 8 12 17 16 15 14 14 17 15 16 14 11 9 11 15 13 10 10 11 13 14 13 10 9 9 9 8 8 7 7 8 8 8 7 7 7 7 6 6 6 6 6 6 6 4 5 5 4 4 4 4 4 4 3 4 4 3 3 3 3 4 4 4 5 5 6
4 2 0 7 7 9 9 3 2 5 3 11 6 7 13 15 15 11 13 12 9 11 12 11 10 9 9 10 11 12 13 13 17 18 16 15 13 12 15 12 13 12 8 10 17 17 14 13 11 11 13 13 13 11 11 10 9 9 9 8 8 8 8 8 7 7 7 7 7 6 6 6 6 6 5 6 5 5 5 5 5 5 4 3 3 2 3 2 3 3 2 4 3 3 3 4 5
2 3 7 3 7 9 14 3 2 6 1 5 8 6 16 19 17 7 8 8 7 11 12 11 10 10 10 9 11 12 14 12 14 13 14 14 13 12 13 14 14 13 14 15 13 12 15 14 13 12 13 14 14 13 11 10 10 10 9 8 8 8 8 8 8 8 7 7 7 6 5 6 6 6 5 5 6 5 6 6 5 4 4 3 3 2 3 3 2 2 2 3 3 3 5 6 5
2 8 7 9 4 8 9 6 6 11 4 4 14 10 7 12 12 13 6 10 6 10 11 11 10 11 11 11 9 10 12 9 10 13 12 12 13 12 13 13 15 17 15 13 15 14 14 14 15 15 16 16 14 12 10 8 9 9 9 9 9 8 8 8 7 7 7 7 7 7 6 6 6 6 5 5 6 6 6 6 5 5 4 3 3 3 2 2 2 2 2 2 3 3 4 6 6
7 1 7 6 7 4 6 6 1 4 11 7 10 8 14 15 6 6 5 2 7 8 12 12 10 9 11 11 11 12 12 12 14 16 14 13 12 14 13 14 15 15 13 14 15 17 17 15 14 13 13 13 13 12 11 10 9 8 7 8 7 8 7 7 7 8 8 7 7 7 7 7 7 6 6 5 5 5 5 5 4 4 4 4 3 3 2 1 3 3 2 1 3 3 4 5 7
5 2 5 8 7 9 14 7 2 5 4 7 7 11 16 17 15 11 15 5 3 8 11 11 12 11 12 11 12 13 13 14 19 16 12 13 12 13 12 12 13 14 12 14 13 13 12 12 11 12 13 13 11 10 9 8 8 6 5 6 6 6 6 6 7 7 7 7 7 8 8 7 7 7 6 6 6 6 6 5 5 4 4 4 4 3 2 2 3 2 2 2 1 1 3 4 6
8 8 9 5 6 7 10 10 4 11 5 6 9 13 17 20 20 17 16 14 11 9 7 8 10 11 12 12 12 12 12 17 19 10 8 11 12 13 12 11 12 13 12 12 14 13 13 12 10 10 12 12 10 9 9 9 8 9 9 6 6 6 6 7 7 7 7 8 8 9 8 8 7 7 7 6 6 6 6 6 5 4 4 4 4 3 3 2 2 1 2 1 3 1 2 4 4
10 7 7 12 12 12 12 13 6 5 3 10 15 17 16 18 20 18 16 11 10 12 11 12 13 14 15 14 13 14 15 19 15 7 10 13 14 13 12 11 11 11 12 13 14 14 15 16 14 15 13 13 13 12 12 12 12 8 6 10 11 10 10 8 7 7 8 7 9 9 8 8 8 8 7 7 7 6 6 6 6 4 4 5 4 4 3 4 2 1 1 0 1 1 1 0 3
11 12 10 13 6 15 14 12 2 4 6 5 11 15 16 18 20 19 11 6 13 14 13 13 15 16 16 15 16 16 19 13 6 5 7 8 10 9 9 10 10 13 11 13 16 16 15 15 17 15 12 13 14 15 13 13 13 14 14 13 11 10 10 10 10 9 9 7 9 9 9 8 9 8 8 7 7 7 7 6 5 5 5 5 4 4 4 3 2 1 1 0 0 1 1 1 4
10 11 11 9 10 12 13 9 7 4 5 12 7 12 15 17 20 18 13 11 12 13 15 17 16 15 14 15 17 17 15 14 7 9 7 10 11 11 11 11 13 17 16 18 17 16 16 16 15 14 14 14 13 13 13 14 10 8 9 7 10 7 4 4 5 6 7 8 8 9 8 9 9 8 8 8 7 7 7 7 6 6 5 5 5 4 4 3 3 2 2 2 1 1 1 2 2
8 10 8 13 8 4 14 5 1 3 8 4 5 11 11 10 13 16 16 12 13 14 16 17 16 17 16 18 18 16 14 12 12 12 10 9 11 11 10 11 13 12 13 12 14 17 14 15 15 15 15 14 13 14 13 10 9 6 4 5 4 5 5 6 5 5 6 7 8 8 8 9 9 9 9 8 7 7 7 7 6 6 6 5 6 5 4 4 3 2 2 2 1 1 1 1 2
11 14 11 11 10 12 12 10 2 2 4 3 8 12 13 10 16 16 16 16 15 15 15 16 17 15 17 15 16 16 16 14 13 9 6 8 10 13 16 14 11 14 14 15 15 16 13 17 16 16 15 16 14 13 13 10 8 6 6 6 5 5 5 5 6 6 8 8 8 9 11 9 9 9 8 8 8 8 7 7 7 6 6 5 5 6 5 5 4 3 4 3 2 2 1 0 1
13 9 11 16 12 13 12 10 7 5 6 4 3 9 13 9 19 20 13 4 7 11 13 17 18 18 17 16 20 20 11 12 14 13 13 13 14 11 8 9 13 13 15 15 15 16 15 14 15 15 13 13 13 13 13 11 12 12 11 10 10 8 8 10 14 16 13 13 14 9 7 9 9 8 8 9 8 7 8 7 6 6 6 6 6 6 5 4 4 4 4 3 3 3 2 1 2
11 7 12 13 10 10 7 8 3 7 7 4 2 8 18 6 7 9 8 7 12 7 8 14 14 14 15 16 16 15 11 11 8 7 7 10 10 11 11 13 15 15 14 11 12 14 15 15 15 16 14 12 12 13 14 12 12 12 15 15 14 15 15 12 10 8 11 9 7 10 9 8 9 10 8 8 7 7 7 7 7 6 6 6 4 5 5 5 5 4 3 3 3 4 3 1 2
11 2 6 6 6 6 8 6 8 9 1 3 0 3 7 21 9 6 10 11 10 10 11 11 12 13 15 16 14 12 12 10 10 11 11 13 14 16 18 17 14 15 11 11 12 12 15 15 14 14 12 12 12 12 14 14 14 13 13 13 12 13 14 13 12 10 8 7 9 10 9 9 9 8 8 7 8 8 8 8 7 7 7 6 6 6 6 5 5 3 3 3 3 3 3 3 3
4 2 6 5 7 6 2 2 4 3 4 10 9 2 6 15 5 15 15 12 12 13 14 14 15 15 16 17 15 11 12 10 10 10 12 14 15 15 13 13 12 9 11 13 13 13 12 12 13 13 14 13 12 14 15 15 14 14 14 12 12 11 9 7 7 6 8 8 10 8 9 9 8 8 8 9 8 9 8 8 8 7 7 6 6 5 4 4 4 4 3 3 3 2 3 3 2
4 3 4 4 3 3 1 1 0 4 3 15 8 9 7 22 10 5 5 10 13 13 16 17 16 15 17 18 15 11 9 6 8 11 12 13 13 13 11 7 9 12 10 10 10 11 11 11 13 15 15 13 12 14 15 15 15 13 13 14 15 11 8 6 7 9 9 9 11 10 9 9 9 8 9 9 9 9 9 8 8 8 7 6 6 5 4 4 4 3 3 3 3 3 3 3 4
3 4 3 5 6 3 3 4 2 4 8 13 13 12 10 14 5 11 10 8 13 13 8 10 10 11 15 16 11 11 10 7 8 8 7 8 7 7 7 12 12 8 8 10 10 11 11 12 13 16 16 13 13 15 16 17 15 14 15 15 16 14 12 10 10 9 9 9 11 11 10 9 9 9 8 8 9 9 8 8 8 7 6 6 6 6 6 5 5 4 4 3 3 4 4 4 3
2 2 2 4 6 5 2 2 2 3 14 3 14 15 15 13 3 3 6 1 12 14 11 13 11 15 16 14 10 12 10 7 6 5 6 7 6 6 7 9 11 12 9 11 11 11 12 13 13 15 14 15 14 15 16 17 16 16 14 15 16 15 14 13 15 15 14 15 13 12 9 8 8 8 8 8 8 8 8 8 7 7 7 7 7 6 5 5 5 4 4 4 4 4 4 3 3
4 5 6 2 5 5 3 2 1 7 14 2 8 11 1 23 10 2 5 3 5 6 10 13 14 15 15 11 12 13 9 5 7 7 8 9 11 12 12 11 9 12 15 14 14 13 13 13 15 16 17 16 16 16 18 17 16 16 17 16 15 13 15 15 15 14 13 13 12 12 12 11 9 9 10 10 10 11 9 9 9 8 7 7 6 6 5 5 5 5 4 4 5 4 4 3 3
7 8 6 5 4 3 5 5 4 5 9 4 6 3 14 9 4 12 16 16 10 10 12 12 13 14 15 14 13 11 7 8 9 10 10 11 12 11 12 13 14 13 14 15 14 14 13 13 15 17 19 16 15 15 17 17 19 18 15 15 14 13 14 14 13 13 13 12 12 14 14 14 13 14 13 13 12 11 9 9 8 8 7 7 7 6 5 5 5 6 5 5 4 3 3 3 4
13 4 13 12 9 5 3 6 8 10 11 2 1 6 8 2 6 7 17 18 16 11 11 12 13 12 12 8 8 5 5 5 7 10 12 13 13 13 13 14 13 13 14 14 13 14 13 14 16 18 16 17 17 18 15 18 17 16 15 14 13 12 13 13 12 11 12 13 12 13 12 11 12 12 12 10 10 11 10 9 8 8 8 7 6 6 6 6 5 4 4 4 3 3 3 4 4
3 3 1 1 9 6 10 7 3 3 6 8 3 8 4 6 1 3 5 5 6 8 13 11 12 11 8 7 9 8 6 6 8 9 9 9 10 9 9 10 12 11 13 13 14 14 14 17 17 19 20 19 18 18 18 19 17 14 14 15 16 14 11 10 9 9 11 13 14 14 13 12 11 10 9 9 10 11 10 10 9 8 8 8 7 7 7 6 5 5 4 3 3 3 4 4 4
4 8 8 13 3 6 5 6 2 1 1 18 2 7 10 7 16 11 18 12 13 9 9 8 10 12 12 12 10 6 6 7 7 8 10 10 7 9 11 11 10 10 10 14 18 19 21 19 17 19 18 14 16 18 18 15 15 14 17 16 14 13 14 15 15 14 13 12 12 12 12 12 10 9 9 9 10 9 9 10 9 9 9 8 8 7 6 6 5 5 5 4 5 4 4 5 4
8 4 8 2 2 3 4 5 4 1 6 12 3 9 14 4 16 4 5 2 6 6 9 12 14 14 14 11 8 7 9 11 11 9 7 9 11 11 11 10 13 16 18 18 18 16 15 16 17 19 16 18 19 18 17 16 16 17 16 16 16 16 15 14 12 12 11 11 11 10 9 9 11 10 10 9 10 11 10 10 9 9 8 7 8 6 6 6 5 5 5 5 4 4 4 3 4
3 6 2 7 4 4 3 3 5 6 8 7 11 11 12 15 16 7 7 3 8 12 14 13 12 13 11 10 8 5 5 4 5 8 8 9 11 13 14 15 13 12 12 12 11 11 11 12 14 15 19 21 18 14 13 12 14 13 13 16 16 15 13 12 10 10 10 12 13 12 12 11 9 9 10 10 10 10 10 9 9 9 8 8 7 7 6 6 6 5 4 5 4 4 5 5 5
1 2 1 1 1 3 7 8 3 4 14 8 15 14 16 8 3 4 10 13 12 11 10 10 14 15 13 11 11 10 10 10 9 8 9 11 12 11 12 13 14 18 17 15 14 12 13 15 14 14 13 10 10 14 16 16 16 14 13 11 12 13 12 12 12 12 12 13 12 12 12 11 12 10 10 11 11 11 11 11 9 9 8 8 7 6 6 6 6 5 5 5 4 5 5 6 5
3 1 3 2 1 3 3 2 5 8 8 9 8 12 18 6 6 4 8 9 8 9 10 11 11 11 12 12 13 10 8 9 10 11 11 12 12 11 10 10 10 6 4 4 8 14 16 11 11 13 16 17 16 17 15 15 13 14 14 15 15 13 14 11 11 12 13 12 11 11 12 11 10 11 11 12 12 12 11 11 10 9 9 8 8 7 6 6 6 5 5 5 4 5 6 5 4
12 13 13 14 8 3 5 12 2 3 8 9 9 16 17 6 1 4 3 5 8 11 11 11 10 11 11 12 13 10 7 9 11 12 11 10 10 10 9 6 3 5 8 9 12 10 9 14 17 15 12 12 15 15 15 17 15 13 14 14 13 11 11 10 12 12 13 12 11 12 11 11 13 11 12 12 12 10 10 10 10 9 8 7 7 7 6 7 6 6 6 5 6 5 5 5 4
Wind_Direction
320 315 292 271 261 269 46 7 52 305 59 259 285 285 237 26 226 56 47 43 97 302 132 53 50 35 115 185 151 136 37 147 195 128 211 177 168 156 163 164 166 129 134 147 115 73 54 113 110 106 101 97 94 91 88 89 89 84 85 89 86 84 81 82 79 76 75 76 73 71 69 69 67 66 64 65 65 60 55 50 45 41 36 34 39 46 43 41 42 45 50 52 45 38 34 36 33
300 319 295 258 263 70 291 118 101 345 30 329 265 197 241 275 53 153 162 152 194 147 177 105 90 101 98 140 129 115 30 4 285 135 63 179 130 134 183 176 156 141 144 145 119 94 74 124 123 116 112 107 103 99 94 93 91 90 92 90 91 88 88 86 83 82 79 77 73 70 69 67 66 64 63 63 63 62 59 55 48 43 41 39 35 37 40 38 35 35 43 50 44 36 33 33 28
322 352 344 15 17 99 272 51 307 239 78 271 279 213 274 62 97 25 285 137 153 155 145 70 107 70 20 54 84 232 242 138 84 106 115 158 138 215 207 185 154 122 127 133 117 120 123 132 115 115 117 115 112 107 105 103 97 95 96 97 92 92 90 87 89 84 81 77 75 72 70 69 68 67 66 65 65 61 58 56 53 48 46 44 46 45 45 44 41 37 38 42 39 33 30 30 30
321 270 215 37 352 26 63 18 111 166 236 218 287 288 196 152 179 134 167 170 171 129 61 30 75 244 114 46 164 85 104 211 179 154 144 192 201 168 186 174 155 116 118 123 120 127 135 114 121 123 119 121 119 113 110 106 104 103 99 96 94 93 91 89 86 82 80 79 77 76 73 71 69 68 67 65 64 63 59 55 52 49 47 47 47 49 50 52 51 48 46 46 48 41 34 32 29
358 312 161 76 107 358 97 199 188 116 254 205 221 269 214 173 163 150 142 186 353 83 84 135 80 342 167 149 172 167 203 93 99 168 124 182 159 166 169 167 153 122 128 125 121 130 131 127 128 127 127 125 121 117 114 111 108 103 99 97 96 93 91 91 89 87 84 82 79 77 75 74 72 70 67 64 62 61 59 56 54 51 48 46 45 46 45 46 45 44 42 42 42 40 34 32 29
321 5 333 91 121 180 45 357 320 262 238 184 288 248 179 174 152 171 138 58 39 48 129 91 159 200 38 346 320 143 162 152 181 149 147 199 159 162 168 162 140 115 123 118 121 124 136 131 133 130 126 121 119 115 111 109 105 101 100 98 96 93 92 91 90 89 87 84 81 78 75 73 71 69 67 64 62 60 58 56 54 52 50 47 44 44 44 43 41 40 38 36 34 32 29 27 25
328 31 1 21 355 64 167 195 255 235 269 175 236 234 169 190 157 129 132 54 355 11 17 152 125 89 68 238 40 41 37 243 124 189 167 162 154 162 164 158 117 122 122 117 113 129 141 131 128 125 121 117 111 109 107 104 103 102 100 98 96 95 93 91 90 88 85 84 81 79 77 75 73 70 65 62 59 57 55 54 54 52 51 48 46 43 42 42 41 39 37 34 32 28 25 22 21
38 101 263 99 235 54 251 223 247 169 274 173 219 152 175 163 154 127 176 117 232 138 241 260 127 108 238 144 163 274 354 6 149 118 133 144 156 166 158 152 129 132 126 122 113 129 132 127 125 123 118 114 112 111 110 107 105 103 100 98 96 94 92 90 88 86 85 83 81 80 77 75 74 71 67 63 58 53 51 50 49 49 48 48 46 44 42 41 40 39 36 34 31 26 23 20 19
328 74 349 70 328 14 311 244 250 231 263 290 285 202 178 165 164 131 156 208 85 182 164 149 140 111 255 145 147 293 351 19 103 124 140 148 160 165 154 149 133 135 131 124 119 101 112 127 128 124 123 123 123 121 117 113 109 106 104 101 99 96 95 92 90 87 86 84 82 81 79 76 75 73 71 67 62 59 54 50 48 47 46 45 44 43 41 40 39 37 34 31 28 25 23 19 19
336 99 291 157 139 263 297 282 219 248 234 219 183 185 167 180 163 144 157 122 182 143 210 169 154 159 151 189 349 216 209 170 121 118 150 156 162 156 150 139 135 136 134 130 125 109 100 125 129 131 132 132 130 126 122 119 114 111 108 105 104 101 99 97 94 93 92 89 87 84 82 79 75 74 71 68 64 60 58 54 50 47 45 44 44 42 41 39 38 37 33 30 27 25 23 22 23
325 6 152 57 35 250 246 276 247 303 287 296 235 211 179 159 140 152 158 169 179 148 176 146 23 229 118 259 188 294 139 155 143 158 170 167 160 154 148 141 141 140 139 140 135 116 103 119 134 136 136 133 130 128 125 122 121 117 115 112 108 105 103 100 98 96 95 93 89 86 83 80 78 75 71 67 63 59 56 53 49 45 43 40 38 37 35 34 33 32 31 29 29 28 27 28 26
10 124 21 146 209 187 240 221 274 269 286 313 267 234 206 140 127 129 190 129 194 138 159 168 210 145 208 245 272 106 145 167 170 160 166 160 145 145 144 140 138 139 142 143 137 132 128 117 122 133 133 134 133 132 131 130 129 127 125 121 117 113 109 106 103 99 97 94 91 87 83 80 77 74 70 65 60 56 53 49 46 43 40 37 34 31 29 27 26 24 23 23 23 23 26 26 25
144 167 89 102 238 165 248 298 258 276 284 276 204 259 125 114 177 192 191 162 166 143 229 200 135 124 216 202 336 139 176 189 169 164 161 151 141 134 129 134 137 140 144 143 140 146 144 140 143 133 135 134 130 131 132 132 133 132 129 126 122 118 115 112 109 106 102 96 90 86 81 77 73 68 63 59 56 52 48 45 43 41 39 36 32 30 27 24 22 21 19 18 17 17 18 18 21
129 189 120 253 306 242 258 255 286 298 295 251 276 270 121 126 246 182 133 164 187 172 229 191 139 145 194 71 228 206 212 179 159 161 149 135 131 125 126 134 137 143 146 149 152 154 154 156 154 146 123 116 117 123 129 133 134 133 129 125 123 121 118 117 115 113 108 101 93 84 79 74 68 64 59 55 52 48 45 41 42 40 38 35 33 31 27 24 23 21 19 17 16 16 15 15 14
299 218 82 157 297 20 248 174 253 255 263 229 242 131 154 241 175 179 161 193 243 229 305 123 169 100 245 170 262 203 189 171 154 155 135 125 126 127 128 137 145 148 151 156 157 159 165 164 164 151 139 131 122 121 123 135 137 133 130 127 123 122 120 117 115 112 111 108 99 90 81 75 70 66 63 59 55 53 48 39 45 47 42 40 38 36 32 28 26 24 22 22 21 19 16 14 10
170 74 81 322 271 214 276 250 263 210 266 194 229 140 122 300 7 150 258 181 215 308 116 201 229 198 197 171 227 187 153 149 153 142 134 129 121 125 133 142 153 166 161 163 163 169 166 167 167 160 148 145 136 133 133 138 142 140 135 131 127 122 116 112 111 109 106 106 109 103 93 80 75 73 78 71 71 64 60 50 56 57 49 49 48 43 37 32 32 29 27 28 25 22 16 12 7
57 81 293 8 286 153 264 205 242 286 247 269 283 125 166 251 285 58 90 60 127 232 231 234 193 98 195 213 166 125 135 138 137 137 137 138 138 147 148 155 163 184 182 183 173 172 170 168 169 162 158 148 142 138 141 145 147 139 131 129 127 124 121 117 113 114 116 120 118 123 111 101 100 95 98 119 116 124 100 61 59 62 55 53 51 44 40 36 33 30 30 27 24 20 14 6 0
63 179 137 269 221 256 232 227 218 219 166 252 269 218 153 270 305 263 77 290 136 279 217 282 293 24 350 86 112 129 138 144 149 148 161 158 159 162 175 185 174 190 186 187 190 173 171 175 170 168 155 152 148 145 151 160 149 134 135 129 129 128 128 124 124 139 139 122 149 128 130 131 129 140 145 139 153 157 129 179 67 66 59 56 53 45 42 38 33 28 28 28 23 17 9 2 354
128 200 126 230 197 235 178 235 261 222 270 196 220 223 169 232 150 264 194 278 218 254 246 212 222 10 61 93 121 135 146 152 159 164 166 170 178 181 184 182 190 180 199 192 194 183 175 171 170 165 160 156 150 152 159 166 153 149 146 145 147 142 137 130 138 136 126 119 131 130 125 136 140 143 151 161 145 150 121 85 73 71 64 58 55 49 43 38 32 25 24 25 20 14 9 358 354
236 137 244 246 218 250 290 255 256 226 189 224 114 261 177 245 150 127 206 245 253 225 231 214 216 219 176 150 150 150 157 165 170 171 178 183 186 185 181 188 193 198 196 190 183 179 174 174 175 166 160 158 153 160 164 168 169 161 165 163 156 150 143 138 136 139 129 125 134 134 126 129 127 140 108 103 101 91 78 74 74 68 64 57 59 53 46 35 28 18 15 19 17 10 7 359 357
265 126 206 233 232 284 271 283 293 37 58 224 236 345 309 273 200 150 215 298 248 244 223 198 210 213 183 173 166 165 168 171 181 185 186 192 197 198 195 191 191 194 190 172 173 186 182 175 170 169 163 161 157 163 167 173 173 165 168 168 163 154 145 138 142 144 139 132 141 146 138 129 124 116 101 97 100 96 84 82 76 72 72 57 58 55 53 40 33 19 8 9 10 8 3 357 356
128 212 222 234 287 305 271 254 178 110 108 82 333 330 251 254 106 207 161 220 250 209 237 212 225 210 172 174 186 173 175 179 186 190 196 194 195 199 202 211 216 177 157 180 191 186 185 179 172 169 165 168 167 169 173 173 167 171 174 175 168 165 152 151 148 146 141 139 142 151 124 121 119 106 91 94 90 90 82 78 79 78 65 62 53 55 47 38 23 14 5 1 359 2 358 351 349
251 264 241 234 235 240 278 263 261 147 286 211 295 238 333 246 256 235 201 219 244 161 192 206 216 213 186 177 166 180 182 188 190 196 197 201 204 204 201 199 190 187 185 195 186 186 182 181 172 169 171 170 174 174 171 171 175 176 173 173 166 167 160 151 152 149 147 147 137 140 126 127 120 112 99 97 93 92 81 78 76 66 71 60 53 59 50 41 32 12 359 350 349 354 351 349 344
210 246 247 270 238 238 258 277 234 206 178 239 203 21 265 276 281 238 229 239 240 219 206 193 197 217 156 160 180 184 190 191 197 200 196 199 197 199 197 193 197 189 185 190 187 183 182 184 174 171 175 172 176 177 174 175 174 171 171 164 162 163 151 152 152 149 142 137 131 124 129 131 128 113 110 102 112 94 82 78 72 62 67 62 60 64 57 41 31 16 355 340 350 349 347 340 340
217 259 260 270 283 266 299 268 228 213 231 228 321 291 250 216 238 352 260 254 233 236 233 253 226 108 161 177 187 196 199 204 207 209 211 219 212 212 209 208 192 182 193 191 185 183 186 180 173 177 174 176 177 174 176 174 168 167 166 162 164 164 152 155 153 143 139 140 127 126 128 125 119 119 116 122 103 87 75 70 70 71 73 66 62 52 56 36 21 6 356 348 347 348 344 338 336
224 235 286 297 292 299 292 307 275 243 264 177 246 250 258 250 298 272 257 261 227 235 234 231 232 213 173 189 192 195 201 205 209 205 210 206 201 198 209 202 191 194 197 185 181 190 180 176 178 180 177 176 176 172 175 170 170 168 168 165 167 156 157 156 147 146 150 141 140 129 128 131 133 132 122 113 102 91 82 71 73 76 79 74 64 50 36 39 19 5 358 352 357 354 349 336 341
206 274 255 279 271 300 290 266 275 237 236 175 215 260 265 272 151 277 265 243 209 224 232 228 214 222 208 195 197 200 198 207 204 208 202 203 206 204 207 201 199 202 183 189 188 184 179 175 182 179 177 176 172 176 174 172 167 171 168 164 162 158 158 152 147 148 148 148 151 138 132 131 132 125 120 122 109 110 102 94 92 87 79 70 67 50 29 36 27 22 360 356 4 355 342 334 338
324 322 321 293 293 291 272 276 271 279 279 199 196 256 291 272 176 238 265 122 135 205 230 237 221 223 217 208 199 203 205 212 208 188 201 195 206 205 202 199 204 192 187 192 188 175 175 183 179 179 176 176 174 178 173 169 173 170 166 164 165 158 155 151 146 149 152 153 152 143 136 133 129 126 127 127 124 120 121 115 112 93 95 76 67 59 36 37 40 9 8 10 3 356 337 333 328
286 356 314 287 325 307 273 261 268 162 257 156 152 314 287 219 220 242 247 258 278 247 244 239 229 228 225 217 212 204 212 210 194 201 210 207 206 201 205 201 196 194 199 187 177 173 182 179 177 179 174 177 179 179 177 173 169 166 165 171 163 159 156 150 151 153 154 155 149 148 141 137 134 136 139 142 135 131 135 124 105 101 103 90 68 65 64 38 32 20 6 4 3 354 346 330 328
297 17 220 299 326 299 272 248 250 202 246 138 113 281 254 250 233 249 253 261 252 250 250 241 233 230 230 224 219 221 223 207 202 209 211 209 204 202 207 201 197 194 185 178 169 183 180 176 175 173 176 178 182 177 175 171 172 166 166 164 163 160 160 158 157 152 152 152 149 151 146 138 140 141 142 142 133 133 131 129 121 109 113 95 80 75 58 52 36 37 4 20 353 358 343 332 330
268 247 106 242 313 268 278 178 227 187 171 155 134 222 266 265 262 243 254 245 235 242 244 240 236 233 232 228 226 227 225 209 212 215 214 209 205 203 207 197 196 192 169 179 184 182 173 176 173 176 177 177 178 178 178 175 171 165 164 164 168 164 162 161 156 152 152 156 151 154 150 142 142 144 147 140 140 133 128 122 110 139 121 103 89 91 94 60 68 36 22 13 354 348 339 324 325
242 7 262 309 199 270 277 256 167 200 202 184 121 245 253 259 270 260 237 244 216 230 243 240 236 235 233 231 230 231 234 221 228 226 217 208 201 203 198 197 191 189 185 186 181 171 178 176 175 173 174 176 181 178 177 173 171 167 165 165 164 166 163 163 161 159 155 155 154 156 153 144 145 145 144 142 136 138 134 128 140 138 123 106 106 87 85 82 65 34 354 45 22 341 339 326 324
289 195 264 267 222 254 325 282 224 213 119 236 171 218 260 283 256 265 240 243 219 223 243 246 237 235 236 236 233 233 244 243 239 233 219 205 206 201 198 193 190 193 186 177 178 178 177 176 177 172 176 177 177 174 169 168 166 165 166 168 169 165 167 166 162 155 155 158 161 158 159 151 149 148 148 145 142 144 137 135 148 135 133 125 114 96 82 95 77 52 10 45 50 343 334 317 314
269 210 220 226 243 272 261 292 348 137 155 201 234 238 244 254 282 308 307 227 224 218 235 241 240 234 233 236 236 237 236 241 237 232 220 204 204 201 196 193 191 189 186 181 180 177 177 177 178 175 174 173 173 170 168 164 165 159 161 165 167 171 171 166 162 157 162 162 160 161 160 152 153 152 152 150 143 148 144 141 147 137 127 126 113 98 91 57 68 97 45 4 27 359 326 318 313
231 199 234 277 258 239 251 272 269 131 220 197 226 240 256 261 265 271 264 263 202 224 226 231 238 237 238 235 236 238 239 238 241 234 214 206 202 201 194 188 186 185 184 180 176 176 169 172 171 173 171 171 168 162 156 152 150 143 142 155 166 170 169 170 165 165 164 161 164 161 159 157 156 155 155 154 149 149 144 144 143 152 135 129 120 114 86 67 74 70 65 337 354 323 288 294 297
230 226 241 233 246 264 258 253 231 172 191 220 209 225 239 252 258 256 261 258 249 243 246 254 248 246 244 238 237 239 239 244 244 234 204 201 202 194 191 185 184 183 179 174 172 171 171 169 169 167 173 167 160 156 155 155 156 161 160 159 168 183 177 171 178 172 161 163 164 162 162 158 159 158 158 158 154 154 151 154 148 148 145 136 137 133 147 122 111 63 339 325 309 304 257 279 298
253 265 264 254 259 266 262 272 242 203 212 212 224 233 239 250 253 250 247 257 264 255 241 240 242 246 246 247 242 239 242 243 249 207 201 201 200 194 187 177 177 177 176 172 170 175 173 173 168 176 176 169 165 166 171 167 168 164 171 183 183 181 177 172 175 173 173 168 163 163 162 160 161 160 162 160 163 156 151 150 150 160 153 151 153 169 164 159 163 163 188 263 292 320 296 243 309
240 250 254 261 240 264 253 264 234 221 191 251 231 243 245 247 255 257 251 230 246 249 247 237 240 239 246 248 250 247 246 256 267 220 213 205 200 188 173 172 164 171 183 171 176 178 175 173 177 174 174 176 178 177 174 177 179 181 177 185 177 176 169 174 179 183 177 167 163 164 164 164 164 164 166 165 164 158 156 157 160 168 161 162 164 159 156 154 154 168 152 40 274 314 286 354 318
239 240 248 267 256 259 271 252 247 242 177 259 245 251 248 249 254 260 254 232 236 240 243 248 245 245 246 249 249 248 250 253 253 245 210 202 195 182 175 179 184 182 175 180 179 173 176 177 180 175 179 179 183 179 176 184 182 180 179 173 173 168 181 168 162 167 161 164 170 167 165 166 165 168 168 168 165 165 163 158 168 167 164 159 149 151 150 156 160 168 170 174 298 318 285 286 6
239 246 254 246 251 272 284 218 323 200 183 239 226 255 261 266 268 264 257 245 238 238 243 250 250 251 248 245 246 247 249 247 240 231 213 200 190 183 177 184 186 177 178 179 177 177 177 181 181 179 181 183 181 185 184 180 171 153 125 130 136 144 167 152 145 147 156 154 170 173 176 169 169 168 170 168 166 164 162 164 164 166 171 164 160 159 160 174 159 160 151 147 133 349 28 305 60
234 233 240 255 249 243 236 272 314 285 298 291 299 283 269 232 257 261 256 243 249 250 250 252 256 253 250 253 261 251 246 240 238 232 215 189 183 188 189 188 171 181 183 183 179 180 182 184 182 180 181 185 185 181 178 162 144 130 117 105 107 93 88 138 148 177 181 175 166 184 187 171 167 167 171 171 167 167 164 163 166 170 164 167 156 161 169 176 171 173 158 145 157 190 260 270 317
250 228 210 236 243 256 261 278 317 313 311 246 197 306 267 199 221 240 246 272 230 240 236 244 247 250 253 251 250 252 242 237 229 220 202 192 191 188 185 176 183 188 189 188 180 181 179 182 181 182 182 184 184 180 173 167 171 164 156 156 168 175 175 176 190 187 183 186 190 173 160 172 169 169 174 172 170 163 164 165 167 165 170 170 165 167 170 160 166 157 179 160 166 178 165 182 284
259 256 201 226 232 240 258 273 345 278 254 298 129 204 287 151 232 223 245 236 246 251 217 236 239 243 246 243 246 250 235 235 236 228 194 188 192 181 187 187 190 191 194 174 179 183 182 181 182 182 182 183 180 179 176 173 175 181 181 183 182 185 187 203 195 185 184 182 158 172 175 172 174 170 178 173 166 164 162 167 171 172 172 171 168 160 171 176 172 170 156 143 174 157 130 199 254
255 222 180 206 230 237 246 233 199 250 226 263 129 126 273 291 230 216 199 215 229 243 246 242 240 240 241 243 241 243 240 223 210 211 198 192 184 184 191 196 190 194 174 173 181 183 183 181 180 182 182 183 183 177 181 183 182 184 187 191 192 196 197 193 183 183 174 162 167 174 170 177 175 174 171 172 167 166 167 170 171 171 172 177 169 174 175 176 156 153 151 158 142 150 153 186 233
228 224 163 198 206 223 204 181 219 239 5 276 176 139 298 259 255 195 191 217 230 234 238 238 236 237 241 246 244 237 239 222 200 200 198 190 190 198 194 190 194 172 175 181 183 182 179 178 179 181 186 184 183 182 184 188 189 187 189 190 197 207 197 183 170 164 167 167 171 171 174 174 173 173 174 171 172 170 171 173 172 173 174 178 173 168 171 161 160 154 147 135 151 152 157 188 172
255 120 80 75 64 65 69 122 2 330 33 267 173 161 218 281 258 198 186 199 211 223 226 232 229 228 235 244 247 244 245 223 213 209 195 191 194 197 192 173 170 186 180 179 177 175 179 175 181 182 189 186 184 185 187 190 191 187 192 195 198 193 181 162 167 171 173 173 177 177 175 174 176 175 177 175 172 175 173 172 173 174 175 173 167 170 165 158 155 154 161 169 165 178 199 188 197
113 70 66 6 25 20 20 74 91 17 254 258 156 189 176 266 286 171 132 208 204 210 224 239 237 240 247 249 250 252 241 213 212 206 196 193 190 176 155 177 184 176 178 176 178 179 178 180 182 187 191 186 185 187 187 193 192 193 198 197 196 190 182 171 169 180 176 177 182 181 178 179 177 180 175 180 177 173 174 173 172 174 169 168 164 164 171 165 164 159 165 165 178 189 208 205 219
102 96 116 29 328 17 35 345 54 190 267 211 176 181 185 229 286 289 205 259 202 185 202 221 227 239 240 244 248 252 248 219 191 172 171 162 143 166 174 182 182 182 174 183 183 179 184 185 184 190 191 192 188 189 190 195 194 198 201 197 197 193 181 183 185 184 184 183 182 179 175 168 180 176 180 177 182 177 172 175 170 166 170 167 171 169 166 164 163 158 165 179 191 190 186 183 190
118 91 68 184 264 28 320 35 287 200 239 188 211 170 330 238 239 291 290 240 212 212 202 212 217 232 243 245 239 245 237 192 173 177 164 172 180 180 186 187 177 185 190 186 186 185 185 187 188 190 198 192 192 190 195 195 195 200 200 198 199 191 192 191 190 187 184 183 179 175 173 180 173 177 187 183 189 180 172 171 173 174 173 173 167 163 168 161 159 162 170 171 171 182 190 188 200
132 157 156 137 250 224 265 253 238 303 275 235 209 183 240 276 291 218 246 251 219 204 214 219 216 222 237 234 236 233 211 192 182 175 181 184 187 188 187 185 189 191 190 188 187 187 188 190 191 195 201 192 194 193 196 195 202 202 199 200 197 192 196 194 193 189 185 184 179 180 180 180 180 186 182 190 183 175 177 177 170 169 167 164 165 166 164 164 159 161 163 170 184 188 175 191 208
195 120 157 195 168 150 215 226 238 239 256 290 234 107 234 87 247 207 206 229 233 215 214 221 224 229 242 237 256 265 181 197 176 178 188 191 191 187 188 190 191 192 190 188 189 191 186 193 194 200 199 197 194 197 194 201 204 201 200 201 199 196 197 196 197 190 181 181 183 181 184 181 183 184 185 182 168 175 174 166 169 165 167 166 163 160 158 155 157 154 164 178 177 175 196 196 215
199 156 81 45 228 155 231 231 217 289 338 305 183 214 196 230 233 257 268 288 270 226 222 218 237 246 257 260 248 234 207 185 186 191 199 204 196 190 192 191 194 192 190 190 191 188 193 200 199 201 201 196 196 195 199 202 202 197 197 199 202 199 197 194 194 193 189 184 181 182 183 184 184 177 175 165 174 170 168 167 164 166 163 162 161 158 158 160 159 158 166 167 190 182 196 205 219
220 121 193 213 128 192 266 321 281 142 310 262 146 272 271 313 275 228 230 214 233 220 230 230 232 241 240 237 231 218 204 192 192 201 202 201 190 199 197 196 193 191 190 196 196 193 196 195 196 202 203 197 199 201 202 201 199 195 201 200 196 198 197 196 196 194 188 183 180 183 181 183 172 171 169 168 164 166 163 162 163 162 163 160 158 161 160 160 158 162 171 179 197 195 196 214 216
103 196 229 88 96 121 151 211 327 251 221 268 159 243 288 319 287 24 54 265 260 260 236 225 226 229 234 236 227 212 204 200 201 208 209 196 197 201 200 201 196 193 197 200 199 199 199 197 200 200 197 199 203 200 199 198 197 202 202 199 200 199 199 199 192 189 185 180 182 179 172 169 179 170 164 165 160 161 161 161 160 162 161 159 161 160 160 160 157 167 175 192 195 185 207 222 222
157 193 236 132 246 243 239 99 232 261 247 263 279 273 264 252 263 296 306 211 229 225 227 225 231 238 242 245 244 231 240 233 208 213 206 209 206 203 203 204 205 207 205 205 210 196 196 203 206 202 203 205 201 197 199 201 201 205 202 201 199 198 198 195 190 180 179 186 184 179 176 173 156 161 159 159 160 160 161 163 160 161 161 163 160 163 159 159 160 169 182 194 194 186 205 224 225
28 32 351 279 98 186 157 199 173 169 254 269 273 286 271 251 203 214 218 225 226 216 226 230 228 227 230 233 233 216 199 204 213 218 217 213 212 207 202 204 204 203 198 200 194 190 200 206 201 206 210 203 196 199 199 202 204 202 201 199 200 199 194 190 185 178 184 189 185 176 169 164 171 160 163 161 163 164 163 162 165 163 165 162 162 161 161 160 163 178 185 193 195 188 208 223 231
211 211 281 315 231 228 119 314 173 207 229 226 258 278 270 263 204 186 220 225 220 202 214 230 233 236 235 236 237 228 205 204 209 208 211 213 216 219 220 216 216 229 250 189 188 200 205 194 206 208 203 200 200 203 197 205 199 202 198 197 198 192 192 185 179 183 184 186 182 178 175 168 151 168 160 164 165 167 166 166 164 167 166 165 162 165 165 163 170 182 187 191 191 194 213 229 223
188 188 209 201 175 192 219 247 207 213 214 222 214 242 265 229 192 161 195 218 190 211 200 212 228 234 235 240 240 220 200 224 219 214 208 211 218 221 222 216 215 200 208 209 210 200 193 199 205 202 204 208 205 205 201 202 198 198 199 200 193 187 183 180 181 183 185 182 180 180 170 158 169 166 166 166 168 167 166 164 163 163 163 161 163 162 165 164 175 181 190 185 190 200 218 227 225